Location: ????????
(60.5616°N, 46.8254°E)
Time: 11:38:01
(UTC+00:00)

Cosmos 1891 Rocket - Pass Details

Date: 18 February 2020
Orbit: 934 x 1018 km, 82.9° (Epoch: 08 April)

Event Time Altitude Azimuth Distance (km) Brightness Sun altitude
Rises 17:22:12 0° 191° (SSW) 3,626 7.4 -26.4°
Reaches altitude 10° 17:24:40 10° 192° (SSW) 2,695 6.7 -26.6°
Maximum altitude 17:30:52 89° 284° (WNW) 987 4.4 -27.3°
Drops below altitude 10° 17:37:15 10° 14° (NNE) 2,771 7.0 -28.0°
Sets 17:39:48 0° 15° (NNE) 3,735 7.7 -28.3°
